Weather History for ESNQ - January, 2014

Change the Weather History Date:

Wednesday, January 8, 2014

  Actual Average Record
Temperature  
Mean Temperature 22 °F -  
Max Temperature 26 °F - - ()
Min Temperature 19 °F - - ()
Degree Days  
Heating Degree Days 42    
Moisture  
Dew Point 24 °F    
Average Humidity 99    
Maximum Humidity 100    
Minimum Humidity 93    
Precipitation  
Precipitation 0.00 in - - ()
Sea Level Pressure  
Sea Level Pressure 29.38 in    
Wind  
Wind Speed 3 mph ()    
Max Wind Speed 9 mph    
Max Gust Speed -    
Visibility 2.3 miles    
Events Fog , Snow    
T = Trace of Precipitation, MM = Missing Value Source: Averaged Metar Reports

Daily Weather History Graph

Daily Weather History Graph

Search for Another Location

Airport or City:

Trip Planner

Search our weather history database for the weather conditions in past years. The results will help you decide how hot, cold, wet, or windy it might be!

Date:

Astronomy

Jan. 08, 2014 Rise Set
Actual Time 10:40 AM CET 12:50 PM CET
Civil Twilight 8:44 AM CET 2:47 PM CET
Nautical Twilight 7:21 AM CET 4:09 PM CET
Astronomical Twilight 6:12 AM CET 5:18 PM CET
Moon 10:09 AM CET (1/8) 12:39 AM CET (1/8)
Length of Visible Light 6h 02m
Length of Day
2h 09m
First Quarter, 53% of the Moon is Illuminated
Jan 8
First Quarter
Jan 16
Full
Jan 24
Last Quarter
Jan 30
New
Feb 6
First Quarter

Hourly Weather History & Observations

Time (CET) Temp. Windchill Dew Point Humidity Pressure Visibility Wind Dir Wind Speed Gust Speed Precip Events Conditions
12:20 AM 24.8 °F - 24.8 °F 100% 29.33 in 6.2 mi Calm Calm - N/A   Overcast
12:50 AM 24.8 °F - 24.8 °F 100% 29.36 in 5.6 mi Calm Calm - N/A   Overcast
1:20 AM 24.8 °F - 24.8 °F 100% 29.36 in 6.2 mi Variable 1.2 mph - N/A   Mostly Cloudy
1:50 AM 24.8 °F - 24.8 °F 100% 29.36 in 6.2 mi Calm Calm - N/A   Overcast
2:20 AM 26.6 °F - 26.6 °F 100% 29.36 in 1.2 mi NE 2.3 mph - N/A   Overcast
2:50 AM 26.6 °F - 26.6 °F 100% 29.36 in 0.7 mi NNE 2.3 mph - N/A   Overcast
3:20 AM 26.6 °F - 26.6 °F 100% 29.36 in 0.4 mi NE 2.3 mph - N/A Fog Light Freezing Fog
3:50 AM 26.6 °F - 26.6 °F 100% 29.36 in - NE 2.3 mph - N/A Fog Light Freezing Fog
4:20 AM 26.6 °F - 26.6 °F 100% 29.36 in 0.6 mi ENE 2.3 mph - N/A   Overcast
4:50 AM 26.6 °F - 26.6 °F 100% 29.33 in 0.3 mi NE 2.3 mph - N/A Fog Light Freezing Fog
5:20 AM 26.6 °F - 26.6 °F 100% 29.33 in 0.2 mi NE 2.3 mph - N/A Fog Light Freezing Fog
5:50 AM 26.6 °F 22.6 °F 26.6 °F 100% 29.36 in 0.8 mi NE 3.5 mph - N/A Fog Light Freezing Fog
6:20 AM 26.6 °F - 26.6 °F 100% 29.33 in 0.6 mi NE 2.3 mph - N/A Fog Light Freezing Fog
6:50 AM 26.6 °F - 26.6 °F 100% 29.33 in 0.7 mi NE 2.3 mph - N/A Snow Snow
7:20 AM 26.6 °F - 26.6 °F 100% 29.33 in - North - - N/A Snow Snow
7:50 AM 26.6 °F 22.6 °F 26.6 °F 100% 29.36 in 2.8 mi NE 3.5 mph - N/A Snow Light Snow
8:20 AM 24.8 °F 20.5 °F 24.8 °F 100% 29.36 in 0.8 mi NE 3.5 mph - N/A Snow Snow
8:50 AM 24.8 °F - 24.8 °F 100% 29.36 in 1.9 mi NE 2.3 mph - N/A Snow Light Snow
9:20 AM 24.8 °F - 24.8 °F 100% 29.36 in 4.3 mi NE 2.3 mph - N/A Snow Light Snow
9:50 AM 24.8 °F - 24.8 °F 100% 29.36 in 2.5 mi North 1.2 mph - N/A Snow Light Snow
10:20 AM 24.8 °F - 24.8 °F 100% 29.36 in 4.3 mi North 2.3 mph - N/A Snow Light Snow
10:50 AM 24.8 °F - 24.8 °F 100% 29.36 in 0.8 mi North 2.3 mph - N/A Snow Light Snow
11:20 AM 24.8 °F 20.5 °F 24.8 °F 100% 29.39 in 1.2 mi NNE 3.5 mph - N/A Snow Light Snow
11:50 AM 24.8 °F - 24.8 °F 100% 29.39 in 0.7 mi NNE 2.3 mph - N/A Snow Light Snow
12:20 PM 24.8 °F 20.5 °F 24.8 °F 100% 29.39 in - North 3.5 mph - N/A Snow Light Snow
12:50 PM 24.8 °F 20.5 °F 24.8 °F 100% 29.39 in 1.7 mi North 3.5 mph - N/A Snow Light Snow
1:20 PM 24.8 °F 20.5 °F 24.8 °F 100% 29.39 in - North 3.5 mph - N/A Snow Light Snow
1:50 PM 24.8 °F 19.1 °F 24.8 °F 100% 29.39 in 6.2 mi North 4.6 mph - N/A Snow Light Snow
2:20 PM 24.8 °F 19.1 °F 24.8 °F 100% 29.39 in 6.2 mi NNE 4.6 mph - N/A Snow Light Snow
2:50 PM 24.8 °F 17.9 °F 23.0 °F 93% 29.39 in 6.2 mi NNE 5.8 mph - N/A Snow Light Snow
3:20 PM 24.8 °F 19.1 °F 23.0 °F 93% 29.39 in 3.1 mi NNE 4.6 mph - N/A Snow Light Snow
3:50 PM 23.0 °F 15.8 °F 23.0 °F 100% 29.39 in 1.6 mi NNE 5.8 mph - N/A Snow Light Snow
4:20 PM 23.0 °F 17.0 °F 23.0 °F 100% 29.39 in 0.8 mi NNE 4.6 mph - N/A Snow Light Snow
4:50 PM 23.0 °F 15.8 °F 23.0 °F 100% 29.39 in 1.2 mi North 5.8 mph - N/A Snow Light Snow
5:20 PM 23.0 °F 17.0 °F 23.0 °F 100% 29.39 in 1.0 mi North 4.6 mph - N/A Snow Light Snow
5:50 PM 23.0 °F 15.8 °F 23.0 °F 100% 29.39 in 1.1 mi North 5.8 mph - N/A Snow Light Snow
6:20 PM 23.0 °F 17.0 °F 23.0 °F 100% 29.39 in 1.6 mi North 4.6 mph - N/A Snow Light Snow
6:50 PM 23.0 °F 17.0 °F 23.0 °F 100% 29.39 in 1.2 mi North 4.6 mph - N/A Snow Light Snow
7:20 PM 23.0 °F 15.8 °F 23.0 °F 100% 29.42 in - North 5.8 mph - N/A Snow Light Snow
7:50 PM 23.0 °F 14.7 °F 23.0 °F 100% 29.42 in 2.2 mi North 6.9 mph - N/A Snow Light Snow
8:20 PM 23.0 °F 14.7 °F 23.0 °F 100% 29.42 in 1.7 mi North 6.9 mph - N/A Snow Light Snow
8:50 PM 21.2 °F 10.9 °F 21.2 °F 100% 29.44 in 1.0 mi NNE 9.2 mph - N/A Snow Light Snow
9:20 PM 21.2 °F 10.9 °F 21.2 °F 100% 29.44 in 1.9 mi NNE 9.2 mph - N/A Snow Light Snow
9:50 PM 21.2 °F 10.9 °F 19.4 °F 93% 29.44 in 5.0 mi NNE 9.2 mph - N/A Snow Light Snow
10:20 PM 19.4 °F 9.5 °F 19.4 °F 100% 29.44 in 3.1 mi NNE 8.1 mph - N/A Snow Light Snow
10:50 PM 19.4 °F 9.5 °F 19.4 °F 100% 29.44 in 1.6 mi NNE 8.1 mph - N/A Snow Light Snow
11:20 PM 19.4 °F 8.6 °F 17.6 °F 93% 29.47 in 1.6 mi NNE 9.2 mph - N/A Snow Light Snow
11:50 PM 19.4 °F 8.6 °F 17.6 °F 93% 29.47 in 1.2 mi NNE 9.2 mph - N/A Snow Light Snow